Wind_Speed
40 40 35 38 41 43 38 36 41 44 47 46 44 42 40 42 41 40 42 44 44 44 44 43 43 43 43 42 40 39 40 39 39 41 40 40 39 38 41 43 45 47 49
41 43 40 40 41 45 47 45 47 46 50 44 42 41 43 42 41 41 40 43 47 49 49 47 45 45 45 45 43 41 40 42 43 44 45 44 41 39 39 39 40 42 43
42 45 46 50 49 47 46 45 47 51 47 42 41 40 38 37 37 38 39 43 44 48 50 50 48 46 45 45 42 41 42 45 46 46 44 43 41 39 39 38 37 38 41
40 43 43 45 50 53 52 50 51 50 47 40 40 36 34 36 37 39 43 44 45 43 47 51 50 49 46 45 43 44 44 44 42 41 38 38 40 40 40 40 41 43 44
39 41 41 42 42 43 46 48 48 48 46 38 40 37 37 37 35 35 35 35 35 32 35 40 42 49 49 45 46 43 39 39 38 38 38 38 39 40 41 43 43 44 46
34 38 39 39 39 41 42 45 46 45 40 40 40 37 36 34 33 31 33 35 33 29 28 26 25 26 29 28 27 29 33 34 36 37 38 40 41 43 42 40 42 44 44
30 32 35 36 36 37 40 41 40 39 33 37 40 38 39 36 37 33 30 27 28 28 25 25 26 28 27 26 27 28 30 34 36 35 36 38 36 36 37 38 40 41 36
28 28 30 32 34 35 36 38 40 38 34 39 41 41 40 40 38 32 28 28 26 26 27 30 32 32 31 32 32 32 34 33 34 36 36 36 35 34 32 34 36 39 41
30 31 34 36 37 39 41 40 39 38 38 43 42 42 41 43 39 33 31 30 27 28 27 29 31 34 36 38 39 39 41 39 38 36 37 36 35 35 36 39 39 37 38
36 35 36 38 39 39 39 39 40 41 43 46 46 43 43 44 41 37 36 32 30 31 30 31 32 33 35 36 38 38 37 39 40 39 40 39 38 38 38 38 38 37 36
43 41 39 39 39 42 45 46 47 48 48 49 48 46 45 43 43 41 40 38 36 34 35 36 34 34 36 37 39 40 39 41 43 44 43 42 42 41 38 40 39 41 41
48 49 46 44 42 39 39 42 46 48 47 46 46 45 44 44 46 45 43 43 42 41 40 41 41 40 38 39 41 42 42 43 43 44 46 46 44 43 44 46 46 46 44
47 52 51 49 50 46 43 42 42 45 45 45 44 46 46 45 45 47 45 46 47 48 47 47 47 47 46 45 47 48 49 49 49 50 51 50 50 49 50 49 49 46 49
48 49 51 53 53 53 50 44 42 44 47 42 42 47 48 50 50 50 50 50 50 50 52 52 53 55 54 52 54 55 55 55 56 57 57 54 54 56 57 54 52 54 55
48 50 53 52 52 52 54 53 50 50 49 52 51 53 54 55 55 55 55 57 58 57 56 56 58 59 60 59 61 62 63 62 63 62 63 58 62 64 61 60 61 63 64
51 49 55 54 54 54 53 51 52 54 54 55 55 54 55 57 58 60 63 64 63 62 62 63 64 65 65 63 64 63 62 64 66 66 64 67 67 66 68 66 66 70 71
52 51 47 52 56 58 59 58 57 56 58 58 58 60 59 59 61 64 66 65 66 67 69 70 70 70 69 67 68 68 67 73 73 70 71 75 74 73 75 75 75 77 78
58 57 56 57 51 57 61 63 63 65 64 63 64 64 65 64 64 66 67 69 69 71 72 73 75 74 74 73 72 72 76 78 79 80 79 80 80 80 80 81 84 83 85
63 65 63 62 62 60 64 65 67 68 68 70 71 73 73 74 73 72 74 76 75 75 77 79 79 80 81 81 82 81 80 80 79 82 83 83 83 83 85 88 90 89 88
54 58 67 70 69 70 71 73 75 74 75 74 76 77 81 84 85 86 86 84 82 83 83 83 85 86 85 85 86 85 85 84 84 85 86 87 88 92 94 93 91 92 92
62 68 58 54 59 69 75 76 76 79 82 81 81 82 84 86 88 90 91 90 89 89 90 91 90 90 92 92 91 90 89 89 89 90 91 93 95 96 96 96 97 96 94
69 74 72 72 66 61 69 73 74 76 73 76 79 82 86 87 89 91 92 93 95 95 97 97 97 94 94 92 90 90 88 87 90 90 94 94 97 100 99 99 98 100 101
73 77 79 76 79 60 64 67 69 74 72 77 77 79 83 86 87 89 92 93 94 95 97 98 98 98 100 96 98 101 100 98 97 97 98 98 100 101 101 101 102 103 103
78 77 82 78 78 70 65 70 70 71 74 74 78 78 82 87 90 93 96 98 99 99 102 103 105 106 108 111 112 106 102 105 102 101 101 100 102 100 99 99 99 99 100
80 79 81 85 72 71 75 75 74 79 83 85 89 90 86 84 91 95 94 98 101 104 105 107 108 108 109 108 107 104 102 98 98 96 95 99 99 99 98 99 99 100 100
85 87 93 91 75 76 71 82 96 92 93 100 101 100 97 91 90 92 100 104 105 105 106 108 109 109 107 106 104 101 97 95 94 95 96 98 100 98 99 100 101 101 100
Wind_Direction
266 265 265 266 263 264 260 265 273 280 284 286 281 279 273 269 269 274 280 281 279 276 273 270 267 268 266 266 266 267 266 264 266 263 267 269 271 272 269 268 268 267 268
266 263 254 259 262 271 271 276 278 280 286 284 283 279 276 275 275 276 275 275 276 274 270 265 262 262 262 265 267 268 267 266 266 266 267 269 270 268 271 270 270 269 270
269 267 263 255 258 263 269 272 276 280 283 286 287 284 281 280 277 279 280 282 280 272 267 263 259 256 258 260 264 266 269 270 269 269 270 268 267 267 268 267 271 272 272
268 266 266 263 261 262 266 268 272 277 281 286 286 282 279 280 279 282 285 282 285 276 269 262 258 255 255 259 262 266 268 270 269 270 268 266 265 266 268 272 275 279 278
277 271 269 268 266 266 266 269 272 275 278 282 281 281 281 283 286 288 290 293 290 287 276 269 267 263 262 262 263 268 267 272 270 266 267 267 266 266 270 275 276 276 277
279 269 269 270 272 273 271 269 274 279 278 281 276 278 278 281 288 289 295 292 289 287 279 273 271 268 269 265 264 268 269 263 261 265 265 266 265 273 275 272 270 274 271
290 283 278 279 277 276 275 274 275 274 276 275 276 276 278 275 284 285 290 293 292 283 273 264 262 263 263 262 261 265 259 256 260 263 268 268 265 265 265 264 265 265 266
295 290 287 285 282 280 276 275 273 273 271 275 275 278 278 279 278 282 286 287 284 278 268 266 261 263 261 257 256 252 255 255 261 265 265 262 261 260 254 253 257 259 262
293 292 291 289 287 285 281 278 277 271 271 275 278 277 276 276 271 275 278 282 284 280 270 269 269 262 259 258 259 260 265 262 261 257 254 254 257 258 259 261 267 276 273
294 288 286 287 284 283 281 278 275 274 275 278 279 275 273 272 267 270 271 273 275 279 275 272 266 261 265 264 261 261 261 260 257 254 255 258 257 264 267 271 274 276 280
292 288 288 284 284 285 281 276 273 272 273 274 274 273 272 268 264 267 267 268 267 268 269 268 265 266 264 263 263 262 263 263 261 262 265 266 266 270 276 276 279 277 277
292 284 283 284 282 284 284 283 279 274 274 273 271 269 267 264 264 265 262 265 264 263 263 261 263 264 261 259 260 263 264 264 265 265 267 270 272 269 272 276 276 279 279
288 284 281 278 281 280 278 281 280 278 274 272 266 264 266 263 264 266 263 262 263 264 265 266 266 265 265 265 265 264 266 267 266 268 270 271 269 272 271 273 277 279 276
294 287 281 278 275 277 277 273 278 278 275 270 264 263 263 264 266 266 265 264 263 262 263 265 265 268 269 268 268 269 269 269 270 270 270 271 275 275 272 273 273 274 276
287 287 285 278 275 276 278 277 276 277 277 273 270 268 267 266 267 268 268 267 267 266 265 264 265 267 267 267 268 269 269 270 270 268 268 278 278 275 273 274 272 275 279
283 285 285 283 278 274 276 278 277 278 275 274 272 270 271 271 271 271 270 269 268 267 268 268 266 264 265 265 266 268 270 268 266 274 273 277 277 274 271 275 273 277 280
276 278 278 283 282 279 276 273 271 271 274 274 272 271 270 270 272 273 273 272 272 273 271 270 270 271 268 268 269 266 267 271 269 275 277 275 272 275 273 274 275 278 280
283 279 280 283 281 280 281 279 275 272 266 263 266 268 270 272 272 272 271 271 271 272 271 270 270 265 266 267 271 269 271 270 272 270 276 275 272 272 273 274 275 279 280
294 293 290 284 277 276 272 273 277 276 273 270 265 264 266 269 270 270 272 273 274 274 273 272 270 269 267 269 269 271 272 271 272 272 273 273 272 272 272 274 276 278 279
311 307 293 286 286 284 274 271 271 271 271 273 274 273 273 272 273 273 272 269 269 270 271 272 272 272 272 271 271 271 270 270 271 272 272 273 272 271 272 273 275 277 278
313 313 312 305 295 284 280 280 274 273 271 270 271 272 273 274 275 275 274 273 273 274 275 273 273 272 271 271 270 271 270 270 272 273 272 272 273 272 273 272 274 278 279
314 316 312 311 311 290 276 276 275 274 271 267 269 270 270 271 272 273 272 272 271 272 272 272 273 273 272 271 272 270 270 271 271 271 274 274 275 274 274 276 276 275 276
313 315 312 311 310 288 275 269 269 271 277 280 279 278 275 270 268 268 268 268 268 268 269 269 269 270 269 269 272 273 270 271 272 273 272 272 270 273 274 275 274 274 275
313 311 311 307 303 293 274 268 266 272 279 274 279 278 274 275 273 270 269 269 269 267 265 265 265 268 268 271 273 271 270 270 273 274 275 274 274 276 276 276 275 275 275
310 307 307 308 292 287 279 268 269 276 276 275 278 282 278 273 271 269 271 271 270 269 268 267 268 269 270 271 273 273 272 272 274 275 274 274 275 276 276 276 276 275 275
306 306 308 305 293 285 275 272 278 276 275 276 274 282 282 278 275 271 267 267 268 268 269 270 271 271 272 273 273 273 274 274 275 276 277 276 276 276 276 276 277 276 278
Height
10776 10774 10776 10776 10773 10774 10774 10773 10772 10771 10770 10772 10772 10771 10771 10770 10770 10770 10768 10766 10765 10765 10765 10764 10764 10764 10765 10767 10769 10772 10773 10773 10772 10772 10773 10774 10776 10776 10776 10775 10775 10775 10776
10770 10768 10770 10769 10768 10767 10767 10768 10766 10763 10762 10762 10762 10762 10761 10762 10762 10761 10761 10759 10757 10756 10756 10757 10756 10756 10757 10759 10763 10765 10765 10764 10763 10764 10766 10767 10767 10768 10768 10768 10767 10766 10765
10765 10762 10763 10763 10761 10761 10761 10760 10759 10757 10755 10755 10753 10752 10752 10753 10753 10752 10751 10750 10748 10746 10745 10747 10748 10748 10749 10752 10756 10756 10756 10753 10753 10755 10757 10758 10758 10760 10760 10759 10759 10758 10757
10757 10755 10753 10754 10754 10754 10754 10753 10752 10751 10749 10749 10746 10745 10745 10745 10745 10744 10742 10741 10738 10735 10735 10736 10738 10739 10741 10745 10747 10747 10747 10744 10745 10746 10748 10749 10749 10751 10751 10751 10751 10750 10749
10749 10747 10746 10747 10747 10747 10747 10746 10745 10743 10742 10742 10740 10739 10738 10737 10736 10735 10734 10731 10729 10727 10726 10727 10728 10731 10734 10737 10738 10739 10739 10737 10737 10738 10740 10742 10741 10741 10742 10744 10743 10742 10740
10744 10742 10741 10740 10740 10739 10739 10738 10738 10736 10735 10734 10732 10732 10731 10729 10728 10727 10725 10723 10722 10720 10720 10721 10722 10724 10727 10728 10729 10731 10730 10729 10729 10730 10731 10732 10734 10734 10734 10735 10734 10733 10731
10738 10738 10736 10736 10734 10732 10731 10730 10729 10729 10728 10727 10725 10725 10724 10723 10721 10720 10718 10716 10715 10715 10715 10716 10718 10719 10719 10720 10721 10722 10722 10722 10722 10722 10723 10724 10725 10726 10726 10726 10725 10724 10723
10733 10732 10731 10730 10728 10725 10724 10722 10722 10722 10721 10719 10719 10718 10717 10716 10715 10714 10712 10710 10709 10709 10709 10710 10712 10713 10713 10714 10714 10715 10714 10715 10715 10715 10716 10716 10716 10718 10719 10718 10717 10715 10716
10728 10726 10724 10723 10721 10718 10716 10714 10714 10714 10714 10712 10711 10711 10710 10709 10708 10707 10706 10705 10703 10703 10703 10703 10704 10706 10706 10707 10707 10707 10707 10708 10709 10708 10708 10708 10709 10709 10710 10711 10710 10709 10708
10721 10718 10717 10716 10714 10711 10710 10709 10707 10707 10706 10704 10704 10703 10701 10701 10701 10700 10699 10698 10697 10697 10696 10696 10696 10698 10698 10699 10699 10699 10700 10700 10700 10701 10700 10700 10700 10700 10701 10701 10700 10700 10700
10715 10712 10710 10708 10705 10703 10701 10701 10699 10698 10697 10696 10695 10694 10693 10692 10692 10692 10691 10691 10690 10689 10690 10689 10689 10691 10691 10691 10691 10691 10691 10691 10691 10691 10691 10691 10691 10690 10691 10690 10690 10691 10692
10706 10704 10702 10699 10697 10694 10692 10690 10688 10688 10687 10686 10686 10685 10684 10683 10683 10683 10683 10684 10683 10682 10682 10682 10681 10682 10683 10683 10682 10682 10682 10682 10681 10681 10681 10680 10679 10680 10681 10681 10680 10681 10682
10697 10694 10691 10690 10687 10685 10683 10681 10679 10678 10677 10677 10676 10675 10675 10674 10673 10673 10674 10674 10673 10673 10673 10673 10672 10672 10674 10674 10672 10672 10672 10671 10671 10670 10670 10669 10669 10669 10669 10670 10669 10672 10668
10687 10683 10680 10679 10677 10675 10674 10673 10672 10670 10668 10669 10668 10665 10665 10664 10663 10663 10664 10663 10662 10662 10662 10662 10661 10660 10661 10663 10660 10659 10659 10659 10658 10658 10657 10656 10656 10655 10656 10657 10658 10657 10655
10672 10671 10668 10667 10665 10663 10663 10663 10663 10662 10661 10659 10657 10656 10655 10653 10652 10653 10652 10650 10649 10649 10649 10649 10648 10647 10648 10649 10647 10645 10645 10645 10645 10644 10644 10643 10640 10641 10640 10642 10643 10639 10638
10661 10660 10657 10656 10654 10652 10650 10650 10650 10649 10649 10648 10647 10644 10642 10641 10641 10640 10636 10635 10634 10635 10634 10633 10631 10631 10632 10633 10633 10632 10631 10630 10630 10630 10629 10629 10626 10626 10624 10626 10626 10622 10623
10650 10649 10648 10645 10644 10641 10638 10637 10636 10636 10634 10633 10632 10631 10629 10628 10629 10625 10622 10621 10621 10621 10620 10617 10616 10616 10616 10617 10618 10616 10616 10615 10615 10614 10614 10612 10611 10607 10606 10606 10606 10605 10607
10637 10637 10637 10636 10634 10629 10623 10620 10620 10620 10618 10616 10616 10614 10612 10613 10613 10609 10606 10605 10605 10604 10603 10600 10598 10598 10599 10601 10603 10601 10600 10599 10599 10597 10595 10593 10591 10590 10587 10586 10587 10587 10589
10621 10618 10620 10623 10623 10618 10612 10605 10602 10600 10600 10601 10602 10599 10596 10596 10595 10593 10589 10589 10588 10587 10584 10581 10578 10578 10581 10582 10582 10582 10583 10582 10579 10577 10575 10573 10571 10569 10567 10567 10567 10567 10567
10612 10607 10605 10603 10601 10597 10596 10590 10585 10582 10581 10583 10583 10581 10579 10577 10575 10574 10572 10570 10570 10568 10565 10561 10558 10557 10560 10562 10561 10562 10562 10561 10559 10557 10555 10553 10552 10548 10547 10548 10548 10548 10547
10602 10595 10590 10588 10587 10579 10572 10569 10567 10565 10565 10565 10564 10561 10558 10557 10555 10553 10551 10549 10548 10548 10544 10540 10537 10536 10537 10538 10539 10539 10541 10540 10540 10536 10533 10531 10526 10524 10524 10525 10527 10527 10524
10588 10582 10574 10568 10565 10560 10555 10549 10546 10545 10545 10545 10545 10542 10539 10538 10534 10531 10529 10529 10527 10526 10522 10518 10514 10511 10510 10512 10515 10515 10517 10518 10515 10513 10511 10507 10502 10498 10499 10503 10504 10501 10498
10573 10567 10559 10551 10548 10541 10533 10530 10528 10527 10526 10524 10523 10521 10518 10513 10511 10509 10507 10505 10504 10503 10500 10496 10492 10488 10484 10484 10489 10490 10492 10493 10491 10491 10487 10483 10476 10473 10475 10477 10474 10473 10473
10558 10552 10546 10539 10530 10524 10518 10511 10510 10509 10507 10503 10502 10498 10495 10489 10486 10484 10482 10479 10477 10476 10473 10470 10468 10464 10458 10455 10458 10459 10464 10465 10466 10463 10461 10458 10450 10448 10449 10446 10443 10444 10443
10539 10535 10530 10525 10514 10504 10497 10494 10491 10491 10487 10481 10478 10473 10469 10466 10461 10459 10455 10451 10449 10447 10445 10441 10438 10436 10433 10429 10430 10434 10435 10438 10437 10436 10434 10431 10426 10423 10421 10418 10415 10413 10414
10517 10514 10508 10502 10492 10482 10480 10474 10470 10466 10462 10456 10451 10447 10442 10439 10435 10431 10429 10425 10422 10420 10417 10412 10409 10409 10409 10406 10405 10406 10410 10412 10411 10409 10407 10403 10401 10398 10395 10392 10388 10385 10384